TimeEST,TemperatureF,Dew PointF,Humidity,Sea Level PressureIn,VisibilityMPH,Wind Direction,Wind SpeedMPH,Gust SpeedMPH,PrecipitationIn,Events,Conditions,WindDirDegrees,DateUTC
12:00 AM,42.8,37.4,81,30.17,10.0,Variable,5.8,-,N/A,,Mostly Cloudy,0,2013-01-18 05:00:00
12:53 AM,41.0,37.0,86,30.22,10.0,Calm,Calm,-,N/A,,Mostly Cloudy,0,2013-01-18 05:53:00
1:07 AM,41.0,37.4,87,30.23,10.0,Calm,Calm,-,N/A,,Scattered Clouds,0,2013-01-18 06:07:00
1:15 AM,41.0,37.4,87,30.24,10.0,NNW,4.6,-,N/A,,Mostly Cloudy,330,2013-01-18 06:15:00
1:39 AM,39.2,35.6,87,30.26,10.0,Variable,4.6,-,N/A,,Scattered Clouds,0,2013-01-18 06:39:00
1:53 AM,39.9,36.0,86,30.26,10.0,Calm,Calm,-,N/A,,Clear,0,2013-01-18 06:53:00
2:53 AM,39.0,36.0,89,30.30,10.0,Calm,Calm,-,N/A,,Clear,0,2013-01-18 07:53:00
3:53 AM,37.9,35.1,89,30.31,10.0,Calm,Calm,-,N/A,,Clear,0,2013-01-18 08:53:00
4:53 AM,37.0,35.1,93,30.32,10.0,Calm,Calm,-,N/A,,Clear,0,2013-01-18 09:53:00
5:53 AM,36.0,34.0,93,30.34,10.0,Calm,Calm,-,N/A,,Clear,0,2013-01-18 10:53:00
6:53 AM,35.1,33.1,92,30.38,10.0,Calm,Calm,-,N/A,,Clear,0,2013-01-18 11:53:00
7:53 AM,34.0,33.1,96,30.42,10.0,Calm,Calm,-,N/A,,Clear,0,2013-01-18 12:53:00
8:53 AM,39.9,33.1,77,30.45,10.0,Calm,Calm,-,N/A,,Clear,0,2013-01-18 13:53:00
9:53 AM,45.0,30.0,56,30.50,10.0,Variable,3.5,-,N/A,,Clear,0,2013-01-18 14:53:00
10:53 AM,46.9,28.0,48,30.51,10.0,ENE,5.8,-,N/A,,Clear,60,2013-01-18 15:53:00
11:53 AM,50.0,19.9,31,30.50,10.0,NNE,9.2,-,N/A,,Clear,30,2013-01-18 16:53:00
12:53 PM,52.0,21.0,30,30.48,10.0,NNE,8.1,-,N/A,,Clear,20,2013-01-18 17:53:00
1:53 PM,53.1,19.0,26,30.47,10.0,Variable,6.9,17.3,N/A,,Clear,0,2013-01-18 18:53:00
2:53 PM,54.0,21.0,28,30.46,10.0,ENE,6.9,-,N/A,,Clear,60,2013-01-18 19:53:00
3:53 PM,54.0,18.0,24,30.47,10.0,NE,8.1,-,N/A,,Clear,40,2013-01-18 20:53:00
4:53 PM,53.1,19.0,26,30.48,10.0,Variable,3.5,-,N/A,,Clear,0,2013-01-18 21:53:00
5:53 PM,48.9,24.1,38,30.50,10.0,Calm,Calm,-,N/A,,Clear,0,2013-01-18 22:53:00
6:53 PM,44.1,30.0,58,30.51,10.0,Calm,Calm,-,N/A,,Clear,0,2013-01-18 23:53:00
7:53 PM,41.0,30.9,67,30.53,10.0,Calm,Calm,-,N/A,,Clear,0,2013-01-19 00:53:00
8:53 PM,39.9,28.9,65,30.53,10.0,Calm,Calm,-,N/A,,Clear,0,2013-01-19 01:53:00
9:53 PM,39.9,26.1,58,30.52,10.0,NE,3.5,-,N/A,,Clear,50,2013-01-19 02:53:00
10:53 PM,39.9,25.0,55,30.51,10.0,Calm,Calm,-,N/A,,Clear,0,2013-01-19 03:53:00
11:53 PM,37.0,26.1,65,30.52,10.0,Calm,Calm,-,N/A,,Clear,0,2013-01-19 04:53:00